Hawarden, United Kingdom

2:23 AM GMT on January 20, 2017 (GMT +0000)
Hawarden

Weather History for EGNR - December, 2012

Change the Weather History Date:

Sunday, December 9, 2012

  Actual Average (EGGP) Record (EGGP)
Temperature  
Mean Temperature 46 °F -  
Max Temperature 48 °F 44 °F 57 °F (2016)
Min Temperature 41 °F 36 °F 30 °F (2001)
Degree Days  
Heating Degree Days 19    
Moisture  
Dew Point 41 °F    
Average Humidity 77    
Maximum Humidity 87    
Minimum Humidity 58    
Precipitation  
Precipitation 0.00 in - - ()
Sea Level Pressure  
Sea Level Pressure 30.06 in    
Wind  
Wind Speed 13 mph ()    
Max Wind Speed 20 mph    
Max Gust Speed 32 mph    
Visibility 8.1 miles    
Events Rain    
Averages and records for this station are not official NWS values.
T = Trace of Precipitation, MM = Missing Value Source: Averaged Metar Reports

Daily Weather History Graph

Daily Weather History Graph

Search for Another Location

Airport or City:

Trip Planner

Search our weather history database for the weather conditions in past years. The results will help you decide how hot, cold, wet, or windy it might be!

Date:

Astronomy

Dec. 09, 2012 Rise Set
Actual Time 8:14 AM GMT 3:54 PM GMT
Civil Twilight 7:32 AM GMT 4:36 PM GMT
Nautical Twilight 6:47 AM GMT 5:21 PM GMT
Astronomical Twilight 6:05 AM GMT 6:03 PM GMT
Moon 3:00 AM GMT (12/9) 1:17 PM GMT (12/9)
Length of Visible Light 9h 04m
Length of Day
7h 40m
Waning Crescent, 20% of the Moon is Illuminated
Dec 9
Waning Crescent
Dec 13
New
Dec 20
First Quarter
Dec 28
Full
Jan 5
Last Quarter

Hourly Weather History & Observations

Time (GMT) Temp. Windchill Dew Point Humidity Pressure Visibility Wind Dir Wind Speed Gust Speed Precip Events Conditions
2:50 AM 47 °F - 41 °F 71% 30.17 in 19 mi West 11.5 mph - -   Partly Cloudy
5:50 AM 47 °F - 42 °F 75% 30.11 in 31 mi West 12.7 mph - -  
8:20 AM 50.0 °F - 44.6 °F 82% 30.06 in 6.2 mi WNW 17.3 mph - N/A Rain Light Rain
8:50 AM 47 °F - 43 °F 81% 30.07 in 10 mi West 16.1 mph - - Rain Light Rain Showers
8:50 AM 46.4 °F 39.2 °F 42.8 °F 87% 30.06 in 5.6 mi WNW 18.4 mph 31.1 mph N/A Rain Light Rain
9:20 AM 46.4 °F 39.2 °F 42.8 °F 87% 30.06 in 6.2 mi WNW 18.4 mph 29.9 mph N/A   Scattered Clouds
9:50 AM 48.2 °F - 44.6 °F 87% 30.06 in 5.6 mi WNW 17.3 mph 29.9 mph N/A Rain Light Rain
10:20 AM 50.0 °F - 46.4 °F 87% 30.06 in 6.2 mi WNW 13.8 mph 27.6 mph N/A   Mostly Cloudy
10:50 AM 48.2 °F - 44.6 °F 87% 30.06 in 6.2 mi WNW 15.0 mph 27.6 mph N/A   Mostly Cloudy
11:20 AM 50.0 °F - 44.6 °F 82% 30.06 in 6.2 mi NW 17.3 mph 28.8 mph N/A   Mostly Cloudy
11:50 AM 48 °F - 41 °F 70% 30.06 in 16 mi WNW 16.1 mph - -   Scattered Clouds
11:50 AM 46.4 °F 39.8 °F 41.0 °F 81% 30.04 in 6.2 mi NW 16.1 mph 27.6 mph N/A   Mostly Cloudy
12:20 PM 46.4 °F 39.0 °F 41.0 °F 81% 30.04 in 6.2 mi NW 19.6 mph 32.2 mph N/A   Scattered Clouds
12:50 PM 48.2 °F - 39.2 °F 71% 30.04 in 6.2 mi NW 201.4 mph 29.9 mph N/A   Partly Cloudy
1:20 PM 48.2 °F - 41.0 °F 76% 30.04 in 6.2 mi NW 16.1 mph 27.6 mph N/A   Partly Cloudy
1:50 PM 46.4 °F 39.2 °F 41.0 °F 81% 30.04 in 6.2 mi NW 18.4 mph 31.1 mph N/A   Partly Cloudy
2:20 PM 48.2 °F - 39.2 °F 71% 30.04 in 6.2 mi NNW 17.3 mph - N/A   Scattered Clouds
2:50 PM 47 °F - 37 °F 58% 30.05 in 11 mi WNW 15.0 mph - -   Mostly Cloudy
3:20 PM 46.4 °F 40.1 °F 37.4 °F 71% 30.04 in 6.2 mi NW 15.0 mph - N/A   Mostly Cloudy
3:50 PM 46.4 °F 40.1 °F 39.2 °F 76% 30.04 in 6.2 mi NW 15.0 mph 27.6 mph N/A   Scattered Clouds
5:50 PM 46 °F - 40 °F 72% 30.06 in 9 mi WNW 12.7 mph - -   Scattered Clouds
8:50 PM 44 °F - 37 °F 70% 30.09 in 8 mi NW 12.7 mph - -   Partly Cloudy
11:50 PM 41 °F - 36 °F 77% 30.13 in 14 mi NW 8.1 mph - -